This is the latest recevied weather packets stored in our database for station/object LA3SP-1. If no packets are shown the sender has not sent any weather packets the latest 1 day(s).
| Time | Temp. | Humidity | Pressure | Rain* | Wind** | Luminosity | Snow |
|---|---|---|---|---|---|---|---|
| 1778101550 | -4.44° C | 68% | 1008 hPa | 0 mm | - | - | - |
| 1778097340 | -2.78° C | 64% | 1008 hPa | 0 mm | - | - | - |
| 1778094935 | -2.22° C | 61% | 1007.9 hPa | 0 mm | - | - | - |
| 1778093732 | -1.67° C | 60% | 1008 hPa | 0 mm | - | - | - |
| 1778089522 | 1.11° C | 54% | 1007.3 hPa | 0 mm | - | - | - |
| 1778087117 | 2.22° C | 53% | 1007.1 hPa | 0 mm | - | - | - |
| 1778085914 | 2.22° C | 53% | 1007 hPa | 0 mm | - | - | - |
| 1778084711 | 2.78° C | 52% | 1007 hPa | 0 mm | - | - | - |
| 1778083489 | 3.89° C | 53% | 1007.3 hPa | 0 mm | - | - | - |
| 1778081274 | 3.33° C | 50% | 1007 hPa | 0 mm | - | - | - |
| 1778080502 | 3.33° C | 50% | 1007.1 hPa | 0 mm | - | - | - |
| 1778079299 | 4.44° C | 47% | 1007 hPa | 0 mm | - | - | - |
| 1778078697 | 4.44° C | 47% | 1007.2 hPa | 0 mm | - | - | - |
| 1778078096 | 5° C | 46% | 1007.2 hPa | 0 mm | - | - | - |
| 1778076893 | 5° C | 45% | 1007.3 hPa | 0 mm | - | - | - |
| 1778075089 | 5° C | 41% | 1007.2 hPa | 0 mm | - | - | - |
| 1778073886 | 7.78° C | 40% | 1007.2 hPa | 0 mm | - | - | - |
| 1778072683 | 7.78° C | 45% | 1007.2 hPa | 0 mm | - | - | - |
| 1778070278 | 5.56° C | 42% | 1007.2 hPa | 0 mm | - | - | - |
| 1778069676 | 7.78° C | 42% | 1007.2 hPa | 0 mm | - | - | - |
| 1778069075 | 7.22° C | 43% | 1007.1 hPa | 0 mm | - | - | - |
| 1778066068 | 6.67° C | 45% | 1007.1 hPa | 0 mm | - | - | - |
| 1778064865 | 7.22° C | 43% | 1007.2 hPa | 0 mm | - | - | - |
| 1778063061 | 7.22° C | 46% | 1006.9 hPa | 0 mm | - | - | - |
| 1778062460 | 6.67° C | 48% | 1007 hPa | 0 mm | - | - | - |
* Rain latest 24 hours (hover to see other rain measurements)
** Current wind speed in m/s (hover to see current wind gust speed)